Flag for Uruguay Weather past 2 weeks in Maldonado, Uruguay

Now
79 °F

Partly sunny.


Feels Like: 81 °F
Forecast: 70 / 81 °F
Wind: 12 mph from Northwest

Location: Capitan Corbeta

Current Time: Mar 4, 2015 at 3:08:19 PM

Latest Report: Mar 4, 2015 at 2:00 PM


Visibility: N/A

Pressure: 29.80 "Hg

Humidity: 74%

Dew point: 70 °F

Location of MaldonadoLocation

Historic Weather in Maldonado — Graph

°F

Maldonado temperature yesterday

Maximum temperature yesterday: 88 °F (at 1:00 PM)
Minimum temperature yesterday: 64 °F (at 7:00 AM)
Average temperature yesterday: 75 °F

Past Weeks' High & Low Weather Summary

 TemperatureHumidityPressure
High88 °F (Feb 24, 6:00 PM)94% (Feb 19, 4:00 AM)30.18 "Hg (Feb 19, 4:00 AM)
Low54 °F (Feb 28, 8:00 AM)35% (Feb 17, 3:00 PM)29.62 "Hg (Feb 18, 7:00 PM)
Average72 °F72%29.93 "Hg
* Reported Feb 17 2:00 PM — Mar 4 2:00 PM, Maldonado, Weather by CustomWeather, © 2015

Note: Actual official high and low records may vary slightly from our data, if they occured in-between our weather recording intervals... More about our weather records

Advertising

Maldonado weather history for previous 24 hours

 ConditionsComfort  
Time TempWeatherWind HumidityBarometerVisibility
2:00 PM
Wed, Mar 4
79 °FPartly sunny.12 mph74%29.80 "HgN/A
1:00 PM77 °FPartly sunny.14 mph79%29.80 "HgN/A
12:00 PM77 °FPartly sunny.8 mph79%29.80 "HgN/A
11:00 AM77 °FPartly sunny.16 mph83%29.80 "HgN/A
10:00 AM75 °FBroken clouds.5 mph89%29.80 "HgN/A
9:00 AM73 °FPartly sunny.8 mph89%29.80 "HgN/A
8:00 AM72 °FPartly sunny.9 mph88%29.80 "HgN/A
7:00 AM72 °FPartly cloudy.8 mph88%29.77 "HgN/A
6:00 AM70 °FMostly cloudy.12 mph88%29.77 "HgN/A
5:00 AM70 °FLight rain. Mostly cloudy.14 mph88%29.77 "HgN/A
2:00 AM72 °FRain. Mostly cloudy.12 mph88%29.86 "Hg3 mi
1:00 AM70 °FRain. Mostly cloudy.14 mph88%29.86 "Hg3 mi
12:00 AM70 °FRain. Mostly cloudy.8 mph88%29.86 "Hg4 mi
11:00 PM
Tue, Mar 3
70 °FLight rain. Mostly cloudy.6 mph88%29.86 "Hg5 mi
10:00 PM70 °FThunderstorms. Mostly cloudy.6 mph88%29.86 "Hg5 mi
9:00 PM70 °FThunderstorms. Mostly cloudy.6 mph88%29.86 "Hg5 mi
8:00 PM72 °FMore clouds than sun.15 mph88%29.86 "HgN/A
7:00 PM70 °FRain. Mostly cloudy.20 mph88%29.89 "Hg2 mi
6:00 PM70 °FThunderstorms. Low clouds.26 mph88%29.92 "Hg2 mi
5:00 PM82 °FBroken clouds.9 mph58%29.83 "HgN/A
4:00 PM86 °FBroken clouds.10 mph49%29.83 "HgN/A
3:00 PM88 °FBroken clouds.12 mph46%29.86 "HgN/A
Weather by CustomWeather, © 2015

See weather overviewHow to use our weather pages